Location: Newark
(44.3248°N, 23.7839°E)
Time: 15:14:38
(UTC+00:00)

FO-29 - Pass Details

Date: 02 May 2024
Orbit: 801 x 1320 km, 98.6° (Epoch: 19 May)

Event Time Altitude Azimuth Distance (km) Brightness Sun altitude
Rises 23:08:23 0° 21° (NNE) 4,304 14.1 -29.0°
Reaches altitude 10° 23:11:29 10° 30° (NNE) 3,350 13.1 -28.9°
Maximum altitude 23:18:25 33° 92° (E) 2,063 11.2 -28.5°
Enters shadow 23:21:28 25° 130° (SE) 2,352 11.2 -28.4°
